Printer-friendly version
Follow the MPC on Twitter Follow the MPC on Facebook The MPC blog
Minor Planet Center

MPEC 2010-Q03 : 2010 PS66

The following Minor Planet Electronic Circular may be linked-to from your own Web pages, but must not otherwise be redistributed electronically.

A form allowing access to any MPEC is at the bottom of this page.


Read MPEC 2010-Q02 Read MPEC 2010-Q04


M.P.E.C. 2010-Q03                                Issued 2010 Aug. 16, 21:11 UT

     The Minor Planet Electronic Circulars contain information on unusual
         minor planets and routine data on comets.  They are published
   on behalf of Commission 20 of the International Astronomical Union by the
          Minor Planet Center, Smithsonian Astrophysical Observatory,
                          Cambridge, MA 02138, U.S.A.

             Prepared using the Tamkin Foundation Computer Network

                              MPC@CFA.HARVARD.EDU
       URL http://www.minorplanetcenter.org/iau/mpc.html  ISSN 1523-6714

                                   2010 PS66

Observations:
     K10P66S* C2010 08 15.33266 23 58 55.02 +19 32 16.3          19.1   EQ003704
     K10P66S  C2010 08 15.34506 23 58 58.45 +19 31 23.5          19.5   EQ003704
     K10P66S  C2010 08 15.35745 23 59 01.88 +19 30 29.6          19.5   EQ003704
     K10P66S  C2010 08 15.36984 23 59 05.28 +19 29 37.1          19.0   EQ003704
     K10P66S KC2010 08 15.90607 00 02 28.99 +18 49 05.7                 EQ003J95
     K10P66S KC2010 08 15.91067 00 02 30.47 +18 48 48.6                 EQ003J95
     K10P66S KC2010 08 15.91526 00 02 32.03 +18 48 31.4          19.1 R EQ003J95
     K10P66S KC2010 08 16.04469 00 03 08.10 +18 40 29.3                 EQ003204
     K10P66S KC2010 08 16.05103 00 03 09.73 +18 40 03.4                 EQ003204
     K10P66S KC2010 08 16.05763 00 03 11.43 +18 39 36.5          18.7 C EQ003204
     K10P66S  C2010 08 16.36924900 04 51.89 +18 18 53.1          19.1 V EQ003H21
     K10P66S  C2010 08 16.41068400 05 01.74 +18 16 02.2          18.9 V EQ003H21
     K10P66S  C2010 08 16.41298000 05 02.29 +18 15 52.6          19.0 V EQ003H21

Observer details:
204 Schiaparelli Observatory.  Observer L. Buzzi.  0.38-m f/6.8 reflector
    + CCD.
704 Lincoln Laboratory ETS, New Mexico.  Observers M. Blythe, G. Spitz,
    R. Brungard, J. Paige, P. Festler.  1.0-m f/2.15 reflector + CCD.
H21 Astronomical Research Observatory, Westfield.  Observer R. Holmes.
    Measurer S. Foglia.  0.81-m f/4.0 astrograph + CCD.
J95 Great Shefford.  Observer P. Birtwhistle.  0.40-m f/6.0 Schmidt-Cassegrain
    + CCD.

Orbital elements:
2010 PS66                                                Earth MOID = 0.0148 AU
Epoch 2010 July 23.0 TT = JDT 2455400.5                 MPC
M 357.79920              (2000.0)            P               Q
n   0.63064426     Peri.  126.15680     +0.53605930     +0.84417953
a   1.3467276      Node   176.25841     -0.78011676     +0.49590312
e   0.2424489      Incl.    1.01842     -0.32258063     +0.20357066
P   1.56           H   24.6           G   0.15           U   8
Residuals in seconds of arc
100815 704  0.5+  0.2+    100815 J95  0.6-  0.0     100816 H21  0.2+  0.3+
100815 704  0.1-  0.3+    100815 J95  0.6+  0.5+    100816 H21  0.3+  0.2+
100815 704  0.0   0.4-    100816 204  0.1-  0.2+    100816 H21  0.2+  0.2+
100815 704  0.0   0.7+    100816 204  0.2-  0.1+
100815 J95  0.4-  0.6-    100816 204  0.2-  0.2+

Ephemeris:
2010 PS66                a,e,i = 1.35, 0.24, 1                   q = 1.0202
Date    TT    R. A. (2000) Decl.     Delta      r     Elong.  Phase     V
2010 08 12    23 31.12   +24 26.6    0.0245   1.029   130.0    48.9    18.4
2010 08 22    00 26.37   +13 23.3    0.0435   1.043   136.4    41.9    19.5
2010 09 01    00 40.59   +08 12.7    0.0646   1.063   145.6    32.4    20.2
2010 09 11    00 41.89   +04 54.1    0.0880   1.088   156.5    21.7    20.6
2010 09 21    00 38.32   +02 34.5    0.115    1.117   167.9    10.9    20.8
2010 10 01    00 33.89   +01 01.3    0.148    1.149   177.5     2.2    21.0
2010 10 11    00 30.79   +00 10.0    0.188    1.184   169.3     9.0    21.9

Sonia Keys                   (C) Copyright 2010 MPC           M.P.E.C. 2010-Q03

Read MPEC 2010-Q02 Read MPEC 2010-Q04


MPEC number:

Enter an MPEC number in one of the following forms:

  • 1997-B01 (the full form)
  • J97B01 (the packed version of the full form)
  • B01 (the abbreviated form)

Valid HTML 4.01!